Date String (YYYY-MM-DD hh:mm:ss) UTC,Instrument flags,Ambient pressure (hPa),Sample flow (lpm),Bypass flow (lpm),Sample temperature (°C),Ambient temperature (°C),ASC tube jacket temperature (°C),LED temperature (°C),Box temperature (°C),Sample RH (%),Span deviation,Mass concentration (μg/m³),Mass concentration (μg/m³),Mass concentration (μg/m³)
DateTimeUTC,F1_M11,P_M11,Q1_M11,Q2_M11,T1_M11,T2_M11,T3_M11,T4_M11,T5_M11,U1_M11,ZSPAN_M11,X2_M11,X0_M11,X1_M11
2022-05-02 14:00:00,,0823.4,5.00,0.00,24.9,24.0,00.0,34.0,26.6,20.0,0000.0,0001.01,0001.15,0000.99
2022-05-02 14:01:00,,0823.4,4.99,0.00,24.9,24.0,00.0,34.0,26.6,20.0,0000.0,0001.00,0001.14,0000.95
2022-05-02 14:02:00,,0823.4,5.01,0.00,24.8,23.9,00.0,34.0,26.6,20.1,0000.0,0000.95,0001.10,0000.91
2022-05-02 14:03:00,,0823.5,4.99,0.00,24.8,23.9,00.0,33.9,26.6,20.1,0000.0,0000.92,0001.06,0000.88
2022-05-02 14:04:00,,0823.5,5.01,0.00,24.8,23.9,00.0,33.9,26.6,20.1,0000.0,0000.89,0001.06,0000.85
2022-05-02 14:05:00,,0823.6,5.00,0.00,24.8,23.9,00.0,33.9,26.5,20.1,0000.0,0000.88,0001.14,0000.82
2022-05-02 14:06:00,,0823.6,4.99,0.00,24.8,23.9,00.0,33.9,26.5,20.1,0000.0,0000.87,0001.14,0000.80
2022-05-02 14:07:00,,0823.6,5.01,0.00,24.8,23.9,00.0,33.9,26.6,20.2,0000.0,0000.85,0001.12,0000.78
2022-05-02 14:08:00,,0823.6,5.00,0.00,24.8,23.9,00.0,33.9,26.5,20.9,0000.0,0000.83,0001.10,0000.76
2022-05-02 14:09:00,,0823.6,4.99,0.00,24.7,23.9,00.0,33.9,26.5,23.1,0000.0,0000.82,0001.10,0000.75
2022-05-02 14:10:00,,0823.6,5.02,0.00,24.7,23.9,00.0,33.8,26.5,22.6,0000.0,0000.81,0001.09,0000.74
2022-05-02 14:11:00,,0823.7,4.99,0.00,24.7,23.9,00.0,33.8,26.5,21.0,0000.0,0000.83,0001.12,0000.74
2022-05-02 14:12:00,,0823.7,5.00,0.00,24.7,23.9,00.0,33.8,26.5,20.7,0000.0,0000.81,0001.09,0000.74
2022-05-02 14:13:00,,0823.7,5.01,0.00,24.7,23.9,00.0,33.8,26.5,20.7,0000.0,0000.81,0001.07,0000.74
2022-05-02 14:14:00,,0823.7,5.01,0.00,24.7,23.9,00.0,33.8,26.5,20.7,0000.0,0000.83,0001.13,0000.75
2022-05-02 14:15:00,,0823.7,5.00,0.00,24.7,23.9,00.0,33.8,26.5,20.6,0000.0,0000.83,0001.13,0000.76
2022-05-02 14:16:00,,0823.7,5.00,0.00,24.7,23.9,00.0,33.8,26.6,20.6,0000.0,0000.84,0001.03,0000.76
2022-05-02 14:17:00,,0823.7,5.00,0.00,24.7,23.9,00.0,33.8,26.6,20.5,0000.0,0000.84,0001.02,0000.76
2022-05-02 14:18:00,,0823.7,4.99,0.00,24.7,23.9,00.0,33.8,26.6,20.5,0000.0,0000.84,0001.02,0000.76
2022-05-02 14:19:00,,0823.7,4.99,0.00,24.7,23.9,00.0,33.8,26.6,20.5,0000.0,0000.84,0001.04,0000.76
2022-05-02 14:20:00,,0823.8,5.01,0.00,24.7,23.9,00.0,33.8,26.6,20.5,0000.0,0000.83,0001.01,0000.76
2022-05-02 14:21:00,,0823.8,5.00,0.00,24.7,23.9,00.0,33.8,26.6,20.5,0000.0,0000.83,0001.01,0000.76
2022-05-02 14:22:00,,0823.8,4.99,0.00,24.7,23.9,00.0,33.8,26.6,20.4,0000.0,0000.81,0001.03,0000.74
2022-05-02 14:23:00,,0823.8,4.99,0.00,24.7,23.9,00.0,33.8,26.6,20.4,0000.0,0000.79,0001.06,0000.73
2022-05-02 14:24:00,,0823.9,5.00,0.00,24.7,23.9,00.0,33.7,26.6,20.4,0000.0,0000.78,0001.05,0000.72
2022-05-02 14:25:00,,0823.8,5.00,0.00,24.7,23.9,00.0,33.7,26.6,20.4,0000.0,0000.78,0001.02,0000.71
2022-05-02 14:26:00,,0823.8,5.00,0.00,24.7,23.9,00.0,33.7,26.6,20.4,0000.0,0000.78,0001.03,0000.70
2022-05-02 14:27:00,,0823.8,5.01,0.00,24.7,23.9,00.0,33.7,26.6,20.4,0000.0,0000.75,0000.99,0000.68
2022-05-02 14:28:00,,0823.9,4.99,0.00,24.7,23.9,00.0,33.7,26.6,20.4,0000.0,0000.73,0000.96,0000.66
2022-05-02 14:29:00,,0823.8,5.01,0.00,24.7,23.9,00.0,33.7,26.6,20.4,0000.0,0000.73,0000.98,0000.64
2022-05-02 14:30:00,,0823.8,4.99,0.00,24.7,23.9,00.0,33.7,26.6,20.3,0000.0,0000.70,0000.94,0000.62
2022-05-02 14:31:00,,0823.8,5.00,0.00,24.7,23.9,00.0,33.7,26.6,20.3,0000.0,0000.67,0000.92,0000.59
2022-05-02 14:32:00,,0823.8,5.01,0.00,24.7,23.9,00.0,33.7,26.5,20.3,0000.0,0000.64,0000.87,0000.57
2022-05-02 14:33:00,,0823.8,5.01,0.00,24.7,23.9,00.0,33.7,26.6,20.4,0000.0,0000.61,0000.79,0000.55
2022-05-02 14:34:00,,0823.9,4.99,0.00,24.7,23.9,00.0,33.7,26.6,20.4,0000.0,0000.59,0000.71,0000.53
2022-05-02 14:35:00,,0823.9,5.01,0.00,24.7,23.9,00.0,33.7,26.6,20.5,0000.0,0000.58,0000.70,0000.52
2022-05-02 14:36:00,,0823.9,4.99,0.00,24.7,23.9,00.0,33.7,26.6,20.5,0000.0,0000.55,0000.65,0000.50
2022-05-02 14:37:00,,0823.9,4.99,0.00,24.7,23.9,00.0,33.7,26.5,20.5,0000.0,0000.52,0000.62,0000.49
2022-05-02 14:38:00,,0824.0,5.02,0.00,24.7,23.8,00.0,33.7,26.5,20.6,0000.0,0000.54,0000.66,0000.50
2022-05-02 14:39:00,,0823.9,4.99,0.00,24.7,23.8,00.0,33.7,26.5,20.6,0000.0,0000.58,0000.74,0000.52
2022-05-02 14:40:00,,0823.9,5.00,0.00,24.7,23.8,00.0,33.7,26.5,20.6,0000.0,0000.68,0000.88,0000.61
2022-05-02 14:41:00,,0823.9,5.01,0.00,24.7,23.8,00.0,33.7,26.5,20.6,0000.0,0000.90,0001.19,0000.81
2022-05-02 14:42:00,,0824.0,5.00,0.00,24.7,23.8,00.0,33.7,26.5,20.6,0000.0,0001.17,0001.60,0001.03
2022-05-02 14:43:00,,0824.0,5.00,0.00,24.7,23.8,00.0,33.7,26.5,20.7,0000.0,0001.39,0001.95,0001.19
2022-05-02 14:44:00,,0824.0,5.00,0.00,24.7,23.8,00.0,33.7,26.4,20.6,0000.0,0001.57,0002.23,0001.34
2022-05-02 14:45:00,,0824.0,5.00,0.00,24.7,23.8,00.0,33.7,26.5,20.5,0000.0,0001.71,0002.41,0001.47
2022-05-02 14:46:00,,0824.0,5.00,0.00,24.7,23.8,00.0,33.7,26.5,20.5,0000.0,0001.81,0002.61,0001.55
2022-05-02 14:47:00,,0824.0,4.99,0.00,24.6,23.7,00.0,33.6,26.5,20.3,0000.0,0001.95,0002.77,0001.68
2022-05-02 14:48:00,,0824.0,4.99,0.00,24.6,23.7,00.0,33.6,26.4,20.2,0000.0,0002.03,0002.87,0001.76
2022-05-02 14:49:00,,0824.1,5.01,0.00,24.6,23.7,00.0,33.6,26.4,20.2,0000.0,0002.02,0002.85,0001.76
2022-05-02 14:50:00,,0824.0,4.99,0.00,24.6,23.7,00.0,33.6,26.4,20.2,0000.0,0001.98,0002.78,0001.74
2022-05-02 14:51:00,,0824.1,5.00,0.00,24.6,23.7,00.0,33.6,26.4,20.1,0000.0,0001.86,0002.58,0001.65
2022-05-02 14:52:00,,0824.1,5.01,0.00,24.6,23.7,00.0,33.6,26.4,20.1,0000.0,0001.64,0002.29,0001.45
2022-05-02 14:53:00,,0824.1,5.00,0.00,24.6,23.7,00.0,33.6,26.4,20.1,0000.0,0001.40,0001.93,0001.24
2022-05-02 14:54:00,,0824.1,5.00,0.00,24.6,23.7,00.0,33.6,26.3,20.2,0000.0,0001.19,0001.62,0001.09
2022-05-02 14:55:00,,0824.1,4.99,0.00,24.6,23.7,00.0,33.6,26.4,20.2,0000.0,0001.05,0001.40,0000.97
2022-05-02 14:56:00,,0824.1,5.01,0.00,24.5,23.7,00.0,33.6,26.3,20.2,0000.0,0000.93,0001.24,0000.86
2022-05-02 14:57:00,,0824.1,4.99,0.00,24.5,23.7,00.0,33.6,26.4,20.2,0000.0,0000.88,0001.12,0000.83
2022-05-02 14:58:00,,0824.1,5.00,0.00,24.5,23.7,00.0,33.5,26.3,20.2,0000.0,0000.79,0001.01,0000.75
2022-05-02 14:59:00,,0824.2,5.01,0.00,24.5,23.7,00.0,33.5,26.4,20.1,0000.0,0000.75,0000.99,0000.69
